Location: Ellingshausen
(50.5460°N, 10.4723°E)
Time: 06:17:27
(UTC+00:00)

Cosmos 2344 - Pass Details

Date: 18 January 2026
Orbit: 1195 x 3047 km, 63.3° (Epoch: 18 February)

Event Time Altitude Azimuth Distance (km) Brightness Sun altitude
Exits shadow 03:29:58 32° 353° (N) 1,972 4.5 -34.4°
Maximum altitude 03:30:05 32° 355° (N) 1,974 4.5 -34.4°
Drops below altitude 10° 03:37:09 10° 58° (ENE) 3,475 6.6 -33.3°
Sets 03:40:45 0° 68° (ENE) 4,657 7.5 -32.7°
